Location: 5810 Zion Rd, Cleves, OH 45002, USA
(39.1922°N, 84.7113°W)
Time: 16:07:13
(UTC-05:00)

Altair - All Passes

Search period start: 12 December 2019 00:00
Search period end: 22 December 2019 00:00
Orbit: 1502 x 1682 km, 47.2° (Epoch: 12 December)

Date Brightness Start Highest point End Pass type
(mag) Time Alt. Az. Time Alt. Az. Time Alt. Az.
12 Dec - 01:32:37 10° WNW 01:41:49 61° NNE 01:50:52 10° E visible
12 Dec - 03:37:37 10° WNW 03:46:42 66° SW 03:55:46 10° SE visible
12 Dec - 05:44:22 10° W 05:50:03 18° SW 05:55:47 10° SSW visible
12 Dec - 18:53:34 10° S 19:01:26 28° SE 19:09:04 10° ENE visible
12 Dec - 20:55:35 10° SW 21:05:17 83° SSE 21:14:39 10° ENE visible
12 Dec - 23:01:19 10° W 23:10:37 56° N 23:19:39 10° ENE visible
13 Dec - 01:07:23 10° WNW 01:16:35 59° NNE 01:25:37 10° E night (unlit)
13 Dec - 03:12:25 10° WNW 03:21:34 71° SW 03:30:42 10° SE visible
13 Dec - 05:18:49 10° W 05:25:01 21° SW 05:31:17 10° S visible
13 Dec - 18:28:49 10° S 18:36:22 26° SE 18:43:41 10° ENE visible
13 Dec - 20:30:25 10° SW 20:40:08 79° SE 20:49:30 10° ENE visible
13 Dec - 22:36:00 10° W 22:45:21 57° NNW 22:54:27 10° ENE visible
14 Dec - 00:42:08 10° WNW 00:51:21 57° NNE 01:00:21 10° E night (unlit)
14 Dec - 02:47:14 10° WNW 02:56:27 76° SW 03:05:36 10° SE visible
14 Dec - 04:53:20 10° W 05:00:00 23° SW 05:06:42 10° S visible
14 Dec - 18:04:08 10° S 18:11:17 23° SE 18:18:16 10° E visible
14 Dec - 20:05:15 10° SW 20:14:58 74° SE 20:24:20 10° ENE visible
14 Dec - 22:10:41 10° W 22:20:07 59° NNW 22:29:15 10° ENE visible
15 Dec - 00:16:53 10° WNW 00:26:06 56° N 00:35:06 10° E night (unlit)
15 Dec - 02:22:03 10° WNW 02:31:18 81° SW 02:40:29 10° SE visible
15 Dec - 04:27:54 10° WNW 04:34:58 26° SW 04:42:03 10° S visible
15 Dec - 17:39:32 10° S 17:46:14 21° SE 17:52:47 10° E visible
15 Dec - 19:40:07 10° SW 19:49:49 70° SE 19:59:10 10° ENE visible
15 Dec - 21:45:22 10° W 21:54:52 60° NNW 22:04:03 10° ENE visible
15 Dec - 23:51:38 10° WNW 00:00:51 55° N 00:09:50 10° E night (unlit)
16 Dec - 01:56:51 10° WNW 02:06:10 85° SSW 02:15:21 10° SE night (unlit)
16 Dec - 04:02:31 10° WNW 04:09:55 28° SW 04:17:21 10° S visible
16 Dec - 17:15:01 10° SSE 17:21:11 19° SE 17:27:13 10° E daylight
16 Dec - 19:15:01 10° SW 19:24:40 65° SE 19:33:59 10° ENE visible
16 Dec - 21:20:04 10° W 21:29:37 62° NNW 21:38:52 10° ENE visible
16 Dec - 23:26:22 10° WNW 23:35:36 54° N 23:44:35 10° E visible
17 Dec - 01:31:40 10° WNW 01:41:01 90° SW 01:50:13 10° ESE night (unlit)
17 Dec - 03:37:10 10° WNW 03:44:53 31° SW 03:52:35 10° S visible
17 Dec - 16:50:36 10° SSE 16:56:08 17° SE 17:01:33 10° E daylight
17 Dec - 18:49:55 10° SW 18:59:32 61° SE 19:08:48 10° ENE visible
17 Dec - 20:54:45 10° W 21:04:23 65° NNW 21:13:42 10° ENE visible
17 Dec - 23:01:05 10° WNW 23:10:20 53° N 23:19:19 10° E visible
18 Dec - 01:06:28 10° WNW 01:15:51 86° NNE 01:25:03 10° ESE night (unlit)
18 Dec - 03:11:52 10° WNW 03:19:50 34° SW 03:27:47 10° SSE visible
18 Dec - 16:26:21 10° SSE 16:31:05 14° ESE 16:35:45 10° E daylight
18 Dec - 18:24:50 10° SSW 18:34:24 56° SE 18:43:36 10° ENE visible
18 Dec - 20:29:27 10° WSW 20:39:09 67° NNW 20:48:31 10° ENE visible
18 Dec - 22:35:48 10° WNW 22:45:04 53° N 22:54:04 10° E visible
19 Dec - 00:41:16 10° WNW 00:50:41 82° NNE 00:59:53 10° ESE night (unlit)
19 Dec - 02:46:34 10° WNW 02:54:47 38° SW 03:02:57 10° SSE night (unlit)
19 Dec - 16:02:23 10° SE 16:06:03 13° ESE 16:09:41 10° E daylight
19 Dec - 17:59:48 10° SSW 18:09:16 52° SE 18:18:25 10° ENE visible
19 Dec - 20:04:09 10° WSW 20:13:55 70° NNW 20:23:20 10° ENE visible
19 Dec - 22:10:30 10° WNW 22:19:48 53° N 22:28:49 10° ENE visible
20 Dec - 00:16:05 10° WNW 00:25:30 78° NNE 00:34:42 10° ESE night (unlit)
20 Dec - 02:21:17 10° WNW 02:29:43 41° SW 02:38:04 10° SSE night (unlit)
20 Dec - 15:39:04 10° SE 15:41:01 11° ESE 15:42:58 10° ESE daylight
20 Dec - 17:34:47 10° SSW 17:44:09 48° SE 17:53:12 10° ENE visible
20 Dec - 19:38:51 10° WSW 19:48:41 73° NNW 19:58:10 10° ENE visible
20 Dec - 21:45:11 10° WNW 21:54:33 53° N 22:03:34 10° ENE visible
20 Dec - 23:50:52 10° WNW 00:00:19 74° NNE 00:09:30 10° ESE visible
21 Dec - 01:56:01 10° WNW 02:04:39 45° SW 02:13:10 10° SSE night (unlit)
21 Dec - 17:09:48 10° SSW 17:19:02 45° SE 17:27:58 10° ENE daylight
21 Dec - 19:13:36 10° WSW 19:23:28 77° NNW 19:33:00 10° ENE visible
21 Dec - 21:19:52 10° WNW 21:29:16 53° N 21:38:20 10° ENE visible
21 Dec - 23:25:39 10° WNW 23:35:06 71° NNE 23:44:17 10° ESE visible
